Weather History for Las Vegas, NV

Change the Weather History Date:

Sunday, March 3, 2013

  Actual Average Record
Temperature  
Mean Temperature 70 °F 57 °F  
Max Temperature 78 °F 67 °F 85 °F (1972)
Min Temperature 61 °F 47 °F 23 °F (1971)
Degree Days  
Heating Degree Days 0 8  
Month to date heating degree days 9 26  
Since 1 July heating degree days 1646 1717  
Cooling Degree Days 5 0  
Month to date cooling degree days 5 0  
Year to date cooling degree days 5 1  
Growing Degree Days 20 (Base 50)    
Moisture  
Dew Point 27 °F    
Average Humidity 25    
Maximum Humidity 34    
Minimum Humidity 16    
Precipitation  
Precipitation 0.00 in 0.03 in 0.28 in (1961)
Month to date precipitation 0.00 0.07  
Year to date precipitation 0.43 1.37  
Snow  
Snow 0.00 in 0.00 in 0.10 in (1976)
Month to date snowfall 0.0 0.0  
Since 1 July snowfall T 0.3  
Snow Depth 0.00 in    
Sea Level Pressure  
Sea Level Pressure 29.79 in    
Wind  
Wind Speed 18 mph (SW)    
Max Wind Speed 30 mph    
Max Gust Speed 40 mph    
Visibility 10 miles    
Events      
T = Trace of Precipitation, MM = Missing Value Source: NWS Daily Summary

Daily Weather History Graph

Daily Weather History Graph

Search for Another Location

Airport:

Trip Planner

Search our weather history database for the weather conditions in past years. The results will help you decide how hot, cold, wet, or windy it might be!

Date:

Astronomy

Mar. 03, 2013 Rise Set
Actual Time 6:07 AM PST 5:37 PM PST
Civil Twilight 5:42 AM PST 6:03 PM PST
Nautical Twilight 5:12 AM PST 6:33 PM PST
Astronomical Twilight 4:42 AM PST 7:02 PM PST
Moon No Moon Rise 9:38 AM PST (3/3)
Length of Visible Light 12h 21m
Length of Day
11h 30m
Waning Gibbous, 62% of the Moon is Illuminated
Mar 3
Waning Gibbous
Mar 4
Last Quarter
Mar 11
New
Mar 19
First Quarter
Mar 27
Full

Hourly Weather History & Observations

Time (PST) Temp. Dew Point Humidity Pressure Visibility Wind Dir Wind Speed Gust Speed Precip Events Conditions
12:56 AM 64.9 °F 19.0 °F 17% 29.95 in 10.0 mi South 12.7 mph - N/A   Mostly Cloudy
1:56 AM 68.0 °F 21.0 °F 17% 29.91 in 10.0 mi SSW 17.3 mph 24.2 mph N/A   Overcast
2:56 AM 66.0 °F 21.0 °F 18% 29.88 in 10.0 mi South 10.4 mph - N/A   Overcast
3:56 AM 64.9 °F 19.9 °F 18% 29.87 in 10.0 mi SW 12.7 mph - N/A   Overcast
4:56 AM 64.9 °F 19.0 °F 17% 29.86 in 10.0 mi SSW 16.1 mph 24.2 mph N/A   Mostly Cloudy
5:56 AM 64.9 °F 19.9 °F 18% 29.84 in 10.0 mi SW 21.9 mph - N/A   Overcast
6:56 AM 64.9 °F 23.0 °F 20% 29.88 in 10.0 mi South 12.7 mph - N/A   Mostly Cloudy
7:56 AM 64.9 °F 26.1 °F 23% 29.87 in 10.0 mi South 16.1 mph 25.3 mph N/A   Mostly Cloudy
8:56 AM 70.0 °F 27.0 °F 20% 29.86 in 10.0 mi SSW 15.0 mph - N/A   Mostly Cloudy
9:56 AM 72.0 °F 26.1 °F 18% 29.83 in 10.0 mi SSW 16.1 mph 25.3 mph N/A   Mostly Cloudy
10:56 AM 75.0 °F 26.1 °F 16% 29.81 in 10.0 mi SW 21.9 mph 32.2 mph N/A   Scattered Clouds
11:56 AM 75.9 °F 26.1 °F 16% 29.78 in 10.0 mi SW 21.9 mph 32.2 mph N/A   Mostly Cloudy
12:56 PM 75.9 °F 28.0 °F 17% 29.74 in 10.0 mi SW 24.2 mph 34.5 mph N/A   Mostly Cloudy
1:56 PM 75.9 °F 27.0 °F 16% 29.73 in 10.0 mi WSW 21.9 mph 32.2 mph N/A   Mostly Cloudy
2:56 PM 75.9 °F 26.1 °F 16% 29.72 in 10.0 mi SW 27.6 mph 36.8 mph N/A   Mostly Cloudy
3:56 PM 75.0 °F 27.0 °F 17% 29.70 in 10.0 mi SW 27.6 mph 40.3 mph N/A   Mostly Cloudy
4:56 PM 73.0 °F 30.9 °F 21% 29.70 in 10.0 mi SW 23.0 mph 35.7 mph N/A   Scattered Clouds
5:56 PM 71.1 °F 30.0 °F 22% 29.70 in 10.0 mi SW 18.4 mph 26.5 mph N/A   Scattered Clouds
6:56 PM 69.1 °F 32.0 °F 25% 29.72 in 10.0 mi SSW 16.1 mph 29.9 mph N/A   Scattered Clouds
7:56 PM 66.9 °F 32.0 °F 27% 29.71 in 10.0 mi SSW 18.4 mph 26.5 mph N/A   Scattered Clouds
8:56 PM 64.9 °F 33.1 °F 31% 29.73 in 10.0 mi SSW 16.1 mph 25.3 mph N/A   Partly Cloudy
9:56 PM 63.0 °F 33.1 °F 33% 29.73 in 10.0 mi SW 20.7 mph 33.4 mph N/A   Partly Cloudy
10:56 PM 62.1 °F 32.0 °F 32% 29.74 in 10.0 mi SW 13.8 mph - N/A   Partly Cloudy
11:46 PM 62.6 °F 35.6 °F 37% 29.81 in 10.0 mi West 19.6 mph 23.0 mph N/A   Partly Cloudy
11:56 PM 62.1 °F 36.0 °F 38% 29.76 in 10.0 mi West 10.4 mph 25.3 mph N/A   Scattered Clouds